Location: Biltmore Gardens
(41.6070°N, 83.4666°W)
Time: 15:07:37
(UTC+00:00)

ADEOS II - Pass Details

Date: 14 July 2020
Orbit: 799 x 801 km, 98.5° (Epoch: 12 August)

Event Time Altitude Azimuth Distance (km) Brightness Sun altitude
Rises 08:01:57 0° 12° (NNE) 3,319 6.5 -18.8°
Reaches altitude 10° 08:04:17 10° 12° (NNE) 2,384 5.6 -18.5°
Maximum altitude 08:09:34 85° 284° (WNW) 808 2.0 -17.9°
Enters shadow 08:12:21 29° 198° (SSW) 1,437 2.9 -17.6°
